Regional Weather Roundup
Issued by NWS

Home | Current Version | Previous Version | Graphics & Text | Print | Product List | Glossary On
Versions: 1 2 3 4 5 6 7 8 9 10 11 12 13 14 15 16 17 18 19 20 21 22 23 24 25 26 27 28 29 30 31 32 33 34 35 36 37 38 39 40 41 42 43 44 45 46 47 48 49 50
000
ASUS43 KLMK 172210
RWRKY
KENTUCKY REGIONAL WEATHER ROUNDUP
NATIONAL WEATHER SERVICE LOUISVILLE KY
500 PM EST FRI NOV 17 2017

NOTE "FAIR" INDICATES FEW OR NO CLOUDS BELOW 12,000 FEET
WITH NO SIGNIFICANT WEATHER AND/OR OBSTRUCTIONS TO VISIBILITY.

KYZ001>023-026-027-061>063-070>075-172300-
WESTERN AND SOUTH CENTRAL KENTUCKY

CITY           SKY/WX    TMP DP  RH WIND       PRES   REMARKS
PADUCAH        CLOUDY    60  45  57 SE9       29.86F
HENDERSON      CLOUDY    50  42  74 SE8       29.90F
OWENSBORO      CLOUDY    52  40  63 SE10      29.94F
HOPKINSVILLE   CLOUDY    61  39  44 SE6       29.93F
BOWLING GREEN  PTCLDY    58  38  47 S6        29.98F
GLASGOW        CLEAR     57  37  47 SE6       29.98F
$$

KYZ024-025-028>034-038-045-046-053-172300-
NORTH CENTRAL KENTUCKY

CITY           SKY/WX    TMP DP  RH WIND       PRES   REMARKS
LOUISVILLE/SDF CLOUDY    51  37  58 SE7       29.98F
LOUISVILLE/LOU PTCLDY    50  38  63 S6        30.00F
FORT KNOX      PTCLDY    52  37  56 S7        29.97F
$$

KYZ035>037-039>044-047>052-055>060-089>105-172300-
NORTHEAST KENTUCKY

CITY           SKY/WX    TMP DP  RH WIND       PRES   REMARKS
LEXINGTON      CLOUDY    50  36  58 SE6       30.00F
COVINGTON      MOCLDY    47  35  63 SE10      29.98F
FRANKFORT      CLOUDY    50  35  56 S6        29.99F
$$

KYZ054-064>069-076>088-106>120-172300-
SOUTHEAST KENTUCKY

CITY           SKY/WX    TMP DP  RH WIND       PRES   REMARKS
JACKSON        CLEAR     54  28  36 CALM      30.03F
LONDON         CLEAR     58  32  37 S5        30.02F
SOMERSET       CLOUDY    55  36  47 CALM      30.03F
MIDDLESBORO    CLEAR     58  32  37 CALM      30.05F
MONTICELLO     PTCLDY    59  39  47 VRB5      30.02F
$$





USA.gov is the U.S. government's official web portal to all federal, state and local government web resources and services.